Главная страница
METAR-TAF:

METAR-TAF

Аэропорты :

Форт-Мид, Мэриленд, США

широта: 39-05N, долгота: 076-46W, высота над уровнем моря: 46 м

Текущие метеонаблюдения

Эта сводка был подготовлена 31 минут назад, в 06:03 UTC
Штиль
Температура 21°C
Влажность 94%
Давление 1013 hPa
Видимость: 8.0 км
ясное небо

METAR: KFME 170603Z AUTO 00000KT 5SM CLR 21/20 A2991 RMK AO1

Время: 02:34 (06:34 UTC)


TAF: отсутствует

Метеонаблюдения и прогнозы для более 4000 аэропортов (сводки METAR и TAF).

Имеющиеся станции представлены на карте желтыми и красными точками.

Чтобы увидеть название станции, наведите на нее мышь.

Затем щелкните, чтобы увидеть метеонаблюдения и метеопрогнозы.

Управление картой: чтобы увеличить масштаб, щелкните зеленые кнопки с черным крестиком; чтобы уменьшить масштаб, щелкните зеленую кнопку с тире; для просмотра соседних карт щелкайте зеленые стрелки.


METAR-TAF: